Zurück zum Katalog

THORAD AGENA D DEB

AktivPO
NORAD 5507·DEBRIS·🇺🇸 United States

Gestartet Apr 8, 1970 von Vandenberg Space Force Base

Loading…

Nächste Überflüge (nächste 24 Stunden)

TLE

AktuellSource: Space-Track

Epoche: Sep 14, 2026, 15:03 UTC

1 05507U 70025LL  26257.62757435  .00002593  00000-0  88581-3 0  9994
2 05507  99.2619 309.7880 0024932 168.0970 192.0808 14.37133310864632

Verfolge THORAD AGENA D DEB in Echtzeit mit AllMySat

Download on the App Store